Probability
3 10 19 48 58 48 16 0 0 0 0 0 0 0 13 13 19 16 19 19 39 42 45 61 71 74 68 71 68 61 58 65 71 74 77 74 68 65 71 61 58 65 71 61 61 52 52 55 55
6 26 35 55 55 23 0 0 0 0 0 3 3 10 10 13 10 16 16 23 39 39 42 45 77 74 74 68 71 68 68 68 71 68 77 71 74 71 65 61 65 61 65 61 58 52 52 55 48
23 29 42 71 29 0 0 0 0 0 0 0 0 13 13 13 13 13 16 26 39 39 35 55 74 74 74 71 74 71 71 71 71 71 68 74 74 71 68 74 68 61 65 61 55 52 52 52 48
35 48 65 42 13 0 0 0 0 0 0 0 3 13 13 16 13 16 23 26 35 35 39 52 77 77 68 65 68 68 71 65 68 68 74 71 71 77 65 68 65 68 58 65 58 55 48 48 52
32 52 45 19 0 0 0 0 0 0 0 0 6 16 19 16 10 19 23 26 26 35 39 45 74 77 74 68 68 71 68 68 65 65 71 65 65 68 61 61 65 71 68 61 61 55 48 45 55
39 35 23 6 0 0 0 0 0 0 0 0 3 13 16 19 13 19 19 26 29 39 35 42 77 74 74 68 71 65 71 68 68 71 68 65 65 61 61 61 58 65 65 58 58 58 52 52 55
35 29 13 0 0 0 0 0 0 0 0 0 6 16 19 19 26 23 19 26 29 29 29 39 48 58 74 71 71 65 65 65 65 65 68 65 65 65 58 61 61 65 55 55 48 52 58 52 45
19 16 3 0 0 0 0 0 0 0 0 0 0 10 19 23 29 16 19 29 32 32 26 29 35 42 45 52 68 65 68 65 61 61 61 55 58 61 65 55 65 65 52 55 52 48 55 42 45
10 6 3 0 0 0 0 0 0 0 0 3 3 13 16 19 23 23 23 26 29 35 35 32 32 35 35 39 42 65 68 65 65 58 61 58 55 52 58 48 61 52 45 48 52 48 45 48 48
6 3 3 0 0 0 0 0 0 0 0 3 13 19 19 23 26 23 19 19 32 32 35 45 32 35 32 32 42 48 39 58 52 52 52 48 58 48 48 58 61 52 48 48 48 52 58 52 35
3 3 0 0 0 0 0 0 0 3 6 6 13 19 23 23 23 23 26 23 29 35 29 32 35 42 39 45 52 48 58 65 61 61 68 58 55 52 55 58 55 52 48 42 45 52 35 39 39
0 3 3 0 0 0 0 0 3 10 6 3 16 23 26 19 19 26 26 32 32 26 32 39 39 55 68 65 61 65 55 55 55 58 58 58 61 58 52 58 58 58 52 52 58 55 42 39 39
0 0 0 0 0 0 0 0 0 3 3 6 23 26 23 16 16 26 35 35 39 29 32 32 58 74 81 77 74 58 61 45 58 61 68 68 65 55 65 61 71 61 58 61 55 42 45 48 35
0 0 0 0 0 0 0 0 0 3 3 6 23 23 19 19 19 26 35 32 29 39 35 45 55 71 77 74 81 74 58 74 55 65 61 65 68 68 61 71 71 71 68 58 61 48 48 48 45
0 0 0 0 0 0 0 0 3 3 3 6 19 16 19 23 26 29 35 39 32 39 42 52 52 61 71 71 74 61 65 55 58 71 65 68 71 65 68 74 71 68 65 61 58 55 48 45 39
0 3 0 0 0 0 0 0 0 3 3 6 16 23 26 16 26 32 39 42 39 45 48 48 32 52 68 74 74 68 65 61 71 74 68 65 58 58 77 71 65 68 61 61 68 58 55 52 52
0 0 0 0 0 0 0 0 0 3 3 10 10 16 23 19 26 39 32 29 32 42 55 58 58 58 65 74 74 77 74 77 65 68 65 65 65 58 68 68 68 58 61 65 55 55 52 52 58
0 0 0 0 0 0 0 0 0 3 3 6 3 10 19 23 26 29 29 26 39 45 61 61 61 71 74 77 74 77 77 74 77 68 68 58 55 65 68 68 65 61 58 58 58 61 58 55 58
0 0 0 0 0 0 0 0 0 0 3 10 6 10 23 29 26 23 26 32 35 52 65 68 65 77 84 77 81 74 74 71 74 71 65 58 55 58 58 52 61 65 65 61 61 61 55 52 48
0 0 0 0 0 0 0 0 0 3 6 6 13 16 16 23 26 29 26 26 32 55 61 74 71 74 81 87 84 81 81 68 74 74 74 61 58 55 35 61 58 61 65 61 58 52 58 48 45
0 0 0 0 0 0 0 0 3 3 3 10 10 16 13 16 23 29 32 29 32 48 65 58 77 81 81 84 77 84 84 87 77 77 74 61 58 52 58 61 61 65 55 58 52 45 52 58 52
0 0 0 0 0 0 0 0 3 3 10 6 10 13 13 19 16 29 29 39 35 39 52 71 81 87 84 81 87 87 77 81 77 81 77 68 61 58 58 61 58 61 58 58 55 45 52 52 52
0 0 0 0 0 0 0 0 3 10 10 13 6 13 13 13 16 19 19 29 29 29 29 68 77 81 84 84 84 84 87 90 87 90 77 74 71 65 61 65 65 68 68 65 55 55 52 48 45
0 0 0 0 0 0 0 0 3 10 10 13 6 10 10 16 16 19 23 26 32 32 35 61 74 77 84 84 84 81 81 84 84 84 84 77 71 68 58 71 65 68 68 61 58 61 55 52 45
0 0 0 0 0 0 0 0 6 10 10 13 10 10 10 10 10 16 19 29 42 42 42 58 74 81 81 77 77 77 81 81 77 74 74 71 61 65 65 52 58 61 58 61 61 58 55 52 48
0 0 0 0 0 0 0 0 3 3 3 6 10 10 6 10 13 16 19 29 35 45 58 58 71 74 77 77 81 77 81 81 81 77 74 71 71 58 61 55 48 55 58 45 55 55 52 45 45
0 0 0 0 0 0 0 3 6 3 6 3 3 10 6 6 10 13 16 19 29 42 48 58 61 74 74 77 81 74 77 77 77 74 74 71 71 61 58 52 48 52 48 48 55 52 48 48 48
0 0 0 0 6 0 0 3 3 6 10 6 6 10 13 10 13 13 16 19 35 35 58 61 65 68 65 65 71 68 77 77 74 77 77 71 68 61 61 55 52 48 45 42 52 52 35 39 42
0 0 0 0 3 0 0 0 0 10 16 10 6 13 13 13 16 23 23 29 32 32 39 48 58 65 65 65 58 68 68 74 74 71 68 65 68 58 58 61 61 52 42 45 48 39 39 35 35
0 0 0 0 3 3 0 3 3 3 6 10 6 10 13 19 16 23 26 26 29 32 42 45 48 52 61 65 61 58 68 61 61 58 55 55 55 52 48 52 58 52 45 45 45 42 42 42 42
Height
5889 5889 5890 5890 5889 5889 5887 5888 5887 5886 5885 5885 5884 5883 5882 5882 5882 5883 5880 5878 5879 5878 5878 5878 5878 5878 5879 5879 5879 5880 5880 5881 5881 5881 5882 5882 5883 5883 5883 5883 5883 5884 5884 5884 5884 5885 5886 5886 5886
5891 5891 5892 5891 5890 5890 5890 5889 5889 5888 5887 5886 5885 5884 5884 5883 5882 5881 5880 5880 5879 5879 5879 5879 5879 5879 5879 5880 5880 5880 5881 5881 5881 5882 5882 5883 5883 5883 5883 5883 5884 5884 5884 5884 5884 5885 5886 5886 5886
5893 5893 5893 5892 5891 5891 5891 5891 5890 5889 5888 5888 5887 5886 5885 5884 5883 5882 5881 5881 5880 5880 5880 5879 5879 5879 5880 5880 5880 5880 5881 5881 5882 5882 5883 5883 5883 5883 5883 5883 5884 5884 5884 5884 5884 5885 5885 5886 5886
5894 5894 5894 5894 5892 5892 5892 5892 5891 5890 5890 5889 5888 5887 5886 5885 5884 5883 5882 5881 5881 5881 5880 5880 5880 5880 5880 5881 5881 5881 5881 5881 5882 5882 5882 5883 5883 5883 5883 5883 5883 5883 5884 5884 5884 5884 5885 5885 5886
5895 5895 5895 5895 5894 5894 5894 5893 5893 5892 5891 5890 5889 5888 5887 5886 5885 5884 5883 5882 5881 5881 5881 5881 5881 5881 5881 5881 5882 5882 5882 5882 5882 5882 5882 5883 5883 5883 5883 5883 5883 5883 5883 5883 5883 5884 5884 5885 5885
5896 5896 5897 5897 5896 5896 5895 5894 5894 5893 5892 5891 5890 5889 5888 5887 5886 5885 5884 5883 5882 5882 5882 5882 5882 5882 5882 5882 5882 5882 5882 5882 5882 5882 5882 5882 5882 5882 5883 5883 5883 5883 5883 5883 5883 5883 5883 5883 5884
5898 5898 5899 5899 5898 5897 5897 5896 5895 5893 5893 5892 5891 5890 5889 5888 5887 5886 5885 5884 5883 5883 5883 5883 5882 5882 5882 5882 5882 5882 5882 5882 5882 5882 5881 5881 5881 5882 5882 5882 5882 5882 5882 5882 5882 5882 5882 5882 5883
5898 5900 5900 5900 5899 5898 5897 5897 5895 5894 5893 5893 5892 5891 5890 5889 5888 5887 5886 5885 5884 5884 5884 5883 5883 5883 5883 5882 5882 5882 5882 5881 5881 5881 5881 5880 5881 5881 5881 5882 5882 5882 5882 5882 5882 5881 5881 5882 5882
5900 5902 5901 5900 5900 5899 5898 5897 5896 5895 5894 5893 5892 5891 5891 5890 5888 5887 5887 5886 5885 5885 5884 5884 5883 5883 5883 5883 5882 5882 5881 5881 5881 5880 5880 5880 5880 5881 5881 5881 5881 5881 5881 5881 5881 5881 5881 5881 5881
5901 5901 5901 5901 5900 5900 5899 5898 5897 5897 5895 5894 5893 5892 5891 5890 5889 5888 5887 5886 5886 5885 5884 5884 5883 5883 5883 5883 5882 5882 5882 5881 5881 5880 5880 5880 5880 5880 5880 5881 5881 5880 5880 5880 5880 5879 5879 5879 5879
5902 5902 5901 5901 5901 5900 5900 5899 5898 5897 5896 5895 5893 5892 5892 5891 5890 5889 5888 5887 5886 5885 5885 5884 5883 5883 5883 5882 5882 5882 5881 5881 5881 5880 5880 5880 5880 5880 5880 5880 5880 5879 5879 5879 5879 5878 5878 5878 5878
5903 5902 5902 5902 5901 5901 5900 5900 5899 5898 5897 5895 5895 5893 5892 5891 5890 5890 5888 5888 5887 5886 5885 5884 5883 5883 5883 5882 5882 5882 5881 5881 5881 5880 5880 5880 5880 5879 5879 5879 5879 5878 5878 5878 5877 5877 5876 5876 5877
5902 5902 5902 5902 5902 5901 5901 5901 5900 5899 5897 5896 5895 5894 5893 5892 5891 5890 5889 5888 5887 5886 5885 5884 5884 5883 5883 5882 5881 5881 5881 5881 5880 5880 5880 5879 5879 5879 5878 5878 5877 5877 5877 5876 5876 5876 5876 5875 5875
5902 5902 5902 5902 5902 5902 5902 5901 5900 5899 5897 5896 5895 5894 5893 5892 5891 5890 5890 5889 5887 5886 5886 5885 5884 5883 5883 5882 5881 5881 5880 5880 5879 5879 5879 5878 5878 5877 5877 5876 5876 5875 5875 5875 5875 5874 5874 5873 5873
5901 5902 5902 5902 5902 5902 5902 5901 5900 5899 5898 5896 5896 5894 5893 5892 5892 5891 5890 5889 5888 5887 5886 5885 5884 5884 5883 5882 5881 5880 5879 5879 5878 5878 5877 5877 5876 5876 5875 5875 5874 5874 5873 5873 5873 5873 5872 5872 5871
5901 5901 5902 5903 5902 5902 5903 5901 5899 5898 5897 5897 5895 5895 5894 5893 5892 5891 5890 5889 5888 5887 5886 5885 5884 5884 5883 5882 5880 5879 5879 5878 5878 5877 5876 5876 5875 5874 5874 5873 5873 5872 5872 5871 5871 5871 5871 5870 5870
5901 5901 5903 5903 5902 5902 5902 5900 5899 5897 5897 5896 5895 5894 5893 5892 5892 5890 5890 5889 5888 5887 5886 5885 5884 5884 5883 5881 5880 5879 5878 5877 5876 5876 5875 5874 5873 5872 5872 5871 5871 5870 5870 5869 5869 5869 5869 5868 5868
5902 5902 5902 5903 5902 5902 5901 5900 5899 5898 5896 5895 5895 5894 5893 5892 5891 5890 5889 5888 5887 5887 5886 5885 5884 5883 5882 5881 5880 5879 5877 5876 5876 5875 5874 5873 5871 5870 5869 5869 5868 5868 5868 5867 5867 5867 5866 5866 5866
5900 5901 5901 5902 5902 5901 5900 5899 5898 5897 5895 5895 5894 5893 5893 5892 5891 5889 5888 5887 5887 5886 5885 5885 5884 5883 5882 5880 5879 5878 5876 5875 5874 5873 5872 5871 5869 5868 5867 5867 5866 5866 5865 5865 5865 5864 5864 5863 5863
5898 5899 5900 5901 5901 5900 5898 5898 5897 5896 5895 5894 5893 5892 5892 5891 5890 5888 5887 5886 5885 5885 5884 5883 5882 5881 5880 5879 5878 5877 5875 5874 5873 5872 5870 5869 5868 5866 5866 5865 5864 5863 5863 5863 5862 5862 5862 5861 5861
5897 5898 5899 5899 5899 5898 5897 5896 5896 5895 5894 5893 5892 5891 5890 5889 5888 5887 5886 5885 5884 5883 5883 5882 5881 5880 5879 5878 5876 5875 5874 5872 5871 5870 5868 5867 5866 5865 5864 5863 5862 5861 5861 5860 5860 5859 5859 5859 5858
5895 5896 5896 5897 5896 5895 5896 5895 5895 5893 5893 5892 5891 5890 5889 5887 5887 5885 5884 5883 5883 5882 5881 5880 5879 5878 5877 5876 5874 5873 5872 5871 5869 5868 5866 5865 5863 5862 5862 5861 5860 5859 5858 5858 5857 5857 5856 5856 5856
5892 5893 5893 5894 5894 5893 5894 5893 5893 5891 5890 5890 5889 5888 5887 5885 5885 5883 5882 5881 5880 5880 5879 5878 5877 5876 5875 5873 5872 5871 5870 5868 5867 5866 5864 5863 5861 5860 5859 5858 5857 5856 5856 5855 5855 5854 5854 5853 5853
5889 5890 5891 5891 5892 5891 5892 5892 5891 5889 5888 5888 5887 5886 5884 5883 5882 5881 5880 5878 5877 5877 5876 5876 5874 5873 5872 5871 5870 5869 5867 5866 5865 5863 5862 5861 5859 5858 5857 5856 5855 5854 5853 5853 5852 5851 5851 5850 5850
5887 5888 5888 5888 5888 5888 5889 5889 5889 5887 5886 5885 5884 5883 5881 5881 5880 5878 5877 5877 5876 5875 5874 5872 5871 5870 5869 5868 5867 5866 5865 5864 5862 5861 5860 5858 5856 5855 5854 5853 5852 5851 5850 5850 5849 5848 5848 5847 5846
5883 5885 5886 5887 5887 5887 5887 5886 5885 5884 5883 5882 5881 5880 5879 5878 5877 5876 5874 5873 5872 5872 5871 5870 5868 5867 5866 5865 5864 5863 5862 5861 5860 5858 5857 5855 5854 5853 5851 5850 5849 5848 5847 5846 5846 5845 5844 5844 5843
5880 5881 5883 5884 5884 5884 5884 5883 5881 5880 5879 5879 5878 5877 5876 5875 5874 5873 5870 5870 5869 5868 5868 5867 5865 5864 5863 5862 5861 5860 5859 5858 5857 5855 5854 5853 5851 5850 5849 5847 5846 5845 5844 5843 5842 5841 5840 5840 5839
5876 5877 5879 5880 5880 5880 5880 5880 5879 5877 5876 5876 5875 5874 5873 5872 5871 5870 5868 5867 5866 5865 5864 5863 5862 5861 5860 5859 5858 5857 5856 5854 5853 5852 5851 5850 5848 5847 5846 5844 5843 5842 5841 5840 5839 5838 5837 5836 5835
5872 5874 5874 5875 5876 5876 5876 5878 5875 5874 5873 5872 5871 5870 5870 5869 5868 5867 5865 5864 5863 5861 5859 5858 5857 5857 5856 5855 5854 5853 5852 5851 5850 5848 5847 5846 5844 5843 5842 5841 5840 5838 5837 5836 5835 5834 5833 5832 5831
5867 5868 5870 5871 5870 5870 5870 5873 5870 5871 5870 5868 5867 5867 5866 5865 5864 5863 5861 5860 5859 5857 5855 5854 5853 5853 5852 5851 5850 5849 5848 5847 5846 5844 5843 5842 5840 5839 5838 5837 5836 5834 5833 5831 5830 5829 5828 5827 5826
Wind_Speed
9 9 8 9 10 10 8 6 5 5 4 4 4 4 4 4 4 5 4 3 3 2 2 1 2 2 2 2 2 3 2 4 4 4 4 4 4 4 3 2 1 2 3 3 3 5 5 4 3
9 8 8 9 9 8 6 5 5 6 5 4 4 4 5 5 4 4 4 4 3 2 2 2 2 2 2 2 2 2 2 3 3 3 3 3 3 3 3 2 2 2 3 3 3 4 4 3 3
8 8 9 8 8 7 6 6 5 5 5 5 5 5 6 6 5 4 4 4 3 3 2 2 2 2 2 2 2 1 2 3 3 3 3 2 2 2 2 2 2 3 3 3 3 3 4 4 4
8 9 9 9 8 7 7 6 5 5 5 5 5 6 6 7 6 5 4 4 3 3 2 2 1 1 1 1 1 1 1 2 3 3 3 3 3 3 2 3 3 3 3 4 4 4 5 5 5
8 9 10 9 7 7 6 5 4 4 4 5 5 6 6 6 6 6 5 4 4 4 3 3 2 1 1 1 1 0 1 1 1 2 3 3 3 3 3 3 4 4 4 4 5 5 4 5 5
8 10 10 8 7 7 5 4 4 4 5 5 6 5 5 6 6 5 5 5 5 5 4 4 3 2 1 1 1 1 1 1 1 1 2 3 4 4 3 4 4 4 4 4 5 5 5 5 5
8 9 7 6 5 6 4 4 4 4 5 6 6 6 6 6 6 5 5 5 5 5 5 5 3 2 2 2 1 2 2 2 2 2 2 3 3 3 4 5 5 5 5 5 5 6 6 6 6
8 8 5 4 5 5 5 4 4 4 5 6 6 6 6 5 5 5 5 5 5 4 5 5 5 4 3 3 3 3 3 2 3 3 3 3 3 4 5 5 5 5 6 5 5 5 6 7 6
7 6 4 4 4 5 5 5 6 5 6 6 6 6 6 6 6 6 5 5 4 4 4 5 5 4 4 4 3 3 3 3 3 3 3 3 4 4 4 4 5 6 6 6 6 6 6 7 7
4 3 3 3 4 4 4 5 6 7 7 6 6 5 6 6 6 6 5 4 4 4 4 5 5 5 5 4 3 3 3 4 3 3 3 3 4 4 4 5 5 6 7 7 7 7 7 7 7
1 2 3 3 3 3 3 4 6 6 6 6 6 6 5 5 6 6 5 5 5 5 5 4 5 5 5 4 4 4 5 5 5 4 4 4 4 5 5 6 6 7 7 7 7 7 8 8 8
1 1 1 2 3 3 4 5 5 5 6 6 6 6 6 6 5 5 6 5 5 5 5 5 5 5 5 5 5 5 5 5 5 5 5 5 5 6 6 7 7 7 7 8 7 7 8 8 9
1 1 2 1 2 3 4 5 5 6 7 7 6 7 6 6 6 6 6 6 6 6 6 6 5 5 5 5 6 6 6 6 6 6 6 6 7 7 7 7 7 7 7 8 8 8 9 9 9
1 2 2 2 3 3 4 5 6 7 7 7 7 7 7 7 6 6 6 7 7 7 7 6 6 6 6 6 6 6 7 6 7 6 7 7 8 8 7 7 7 7 8 8 8 8 9 8 9
1 2 3 4 4 6 6 6 7 7 8 8 8 8 8 7 7 7 7 7 8 8 7 7 6 6 7 7 7 7 7 7 6 7 7 7 8 8 8 8 8 8 8 9 8 8 8 9 9
2 2 3 5 6 7 7 7 7 8 8 8 9 9 8 7 7 8 7 8 8 9 8 8 7 7 8 8 8 8 8 7 7 8 8 8 9 9 9 9 9 9 9 9 9 8 9 9 9
4 4 3 7 8 7 7 8 8 8 8 8 9 10 9 8 8 9 9 9 9 9 9 8 8 9 9 9 9 9 9 9 8 9 10 10 10 10 10 10 10 9 9 9 9 9 9 10 10
6 5 6 7 9 8 8 8 8 9 9 8 9 10 10 10 10 10 10 10 10 10 9 9 9 9 10 10 10 10 10 9 10 10 10 11 11 11 10 10 10 10 10 10 9 10 10 10 11
8 7 7 8 10 9 8 9 10 10 10 9 9 9 9 10 10 11 11 10 10 10 10 10 10 10 10 11 11 11 11 10 10 10 11 11 12 11 11 10 11 10 10 10 10 10 10 10 11
7 8 8 8 10 10 10 8 10 11 11 11 10 10 10 11 11 11 11 11 11 11 10 11 11 11 12 12 12 12 11 12 11 12 12 12 12 12 11 11 11 10 11 11 11 11 11 11 11
11 9 9 8 10 10 11 9 11 12 12 13 12 12 12 12 12 11 11 11 12 12 12 12 12 13 13 13 13 13 12 12 12 13 13 13 13 12 11 12 12 11 11 11 11 11 12 12 12
12 10 11 11 12 12 11 12 12 13 14 13 13 14 14 13 12 12 12 12 12 12 12 12 13 13 13 14 13 13 13 13 13 13 14 14 13 13 12 12 12 12 11 11 12 12 12 13 13
12 11 12 12 13 13 11 11 11 13 14 13 14 14 14 14 13 12 12 13 13 13 13 13 14 14 14 14 14 14 14 14 14 14 14 14 13 12 12 12 12 12 12 12 12 12 13 14 14
13 12 12 11 12 13 12 12 13 13 14 15 14 14 14 14 15 14 13 14 14 14 14 14 15 15 15 14 14 14 14 14 15 15 15 15 14 13 12 13 13 13 12 12 13 13 13 14 14
14 14 14 14 15 14 12 14 14 13 15 15 16 15 14 15 15 14 15 15 15 15 14 14 15 15 15 15 15 15 15 15 15 15 15 15 14 13 13 13 13 13 13 13 14 14 13 14 14
15 15 14 15 15 14 13 15 14 14 16 16 17 17 15 14 15 15 15 16 16 15 15 15 15 15 15 15 15 15 15 16 16 16 15 15 15 14 14 14 14 14 14 14 14 14 15 14 14
17 17 15 16 16 16 15 15 16 15 17 18 17 17 15 14 15 16 16 16 17 17 16 16 16 15 15 15 15 15 15 16 16 15 15 15 15 15 15 15 15 15 15 15 15 15 15 15 15
18 17 16 17 18 17 16 16 18 18 17 18 18 17 16 15 16 16 16 16 17 17 17 17 17 16 16 16 16 16 16 16 17 16 16 16 17 17 16 17 16 16 16 16 17 16 16 16 16
18 19 18 18 19 18 17 17 17 17 19 20 18 18 16 16 17 17 18 18 18 18 18 18 18 17 17 17 17 18 18 17 18 18 18 18 18 18 18 18 18 18 18 18 18 19 19 19 19
21 20 19 21 22 21 21 21 18 18 17 19 19 19 18 17 16 18 20 20 20 20 19 18 18 18 17 18 19 19 19 19 19 19 20 20 19 19 19 19 20 20 20 21 21 21 21 21 21
Wind_Direction
90 85 77 66 56 46 37 32 23 23 27 33 32 21 24 32 35 37 35 32 36 39 28 59 96 130 143 166 168 167 179 174 180 186 191 197 200 205 213 212 226 223 229 221 211 209 206 202 218
90 86 75 63 55 42 26 20 20 15 22 22 25 20 20 27 32 29 30 25 21 21 8 47 95 124 136 143 158 187 181 180 177 172 179 194 205 214 214 211 225 234 242 223 215 200 197 201 221
88 79 70 57 42 29 18 20 25 22 26 26 25 21 24 25 31 25 26 27 21 24 25 37 83 105 123 128 124 143 175 188 178 184 191 203 215 230 230 226 230 240 237 228 226 215 207 210 225
93 75 60 57 42 27 17 18 23 26 27 20 16 16 26 28 28 19 10 16 19 25 20 28 67 111 133 136 109 109 104 165 181 195 213 217 224 237 249 256 260 260 246 232 230 231 225 226 233
98 74 59 53 27 25 16 21 17 18 14 10 9 16 28 30 25 17 11 19 29 28 26 41 52 68 85 106 107 71 43 137 165 204 231 237 247 251 252 260 267 265 265 255 244 233 227 236 242
87 71 56 40 17 20 10 15 12 6 7 9 12 17 30 32 25 14 12 22 31 29 25 25 35 45 42 30 359 326 311 330 323 265 248 254 263 257 251 260 271 271 273 271 258 251 240 239 247
86 70 56 35 15 13 6 4 356 3 13 15 12 12 21 22 15 7 9 14 18 16 20 13 14 13 8 3 348 317 305 312 314 311 297 290 281 272 267 266 271 273 277 277 272 272 269 256 258
87 77 57 27 14 16 5 1 350 7 6 6 4 7 14 8 360 1 9 6 10 14 14 10 12 10 358 347 337 326 316 312 314 318 313 313 302 291 278 275 275 277 277 278 280 282 280 276 267
78 76 48 10 2 6 2 4 2 7 3 1 6 6 7 7 1 360 0 4 7 10 3 3 3 4 357 342 335 333 335 330 330 330 315 299 294 297 283 280 280 281 282 286 280 278 277 280 274
68 75 53 1 8 357 353 8 5 6 355 356 360 5 5 9 1 356 356 3 5 5 359 1 4 358 348 340 341 337 339 336 327 320 323 303 294 292 291 285 284 284 283 285 282 285 282 281 279
80 39 42 21 2 347 349 360 1 3 349 352 356 355 360 2 359 356 358 358 357 359 359 358 1 355 345 341 334 332 330 322 323 316 311 305 293 292 292 290 287 286 287 288 286 285 281 276 276
120 57 321 5 357 349 356 357 358 357 339 343 349 348 354 358 354 353 353 355 353 359 1 358 355 346 340 332 321 322 319 314 310 306 307 306 303 298 296 292 292 292 292 290 290 284 280 279 281
304 290 320 333 334 348 358 351 347 343 337 337 341 340 346 349 348 352 354 358 359 359 356 358 4 355 345 335 328 319 310 307 306 305 304 303 302 302 300 296 295 297 298 295 293 289 286 285 282
282 308 315 331 334 341 337 334 334 336 335 339 344 341 347 348 346 350 353 354 352 353 355 357 356 353 345 338 333 328 318 309 309 308 307 308 306 304 302 299 297 299 300 296 291 291 290 288 288
238 301 334 342 331 331 328 328 325 324 330 337 340 337 342 343 340 339 345 350 349 349 351 350 348 346 342 342 335 330 327 319 313 310 305 304 307 306 300 298 298 298 299 298 294 293 292 291 292
300 308 333 319 317 319 313 307 311 315 321 325 329 333 337 339 335 332 334 339 342 343 339 338 340 341 343 344 340 332 325 321 317 313 310 308 307 307 301 300 299 297 298 298 295 292 291 293 293
275 293 294 291 294 298 300 305 315 313 319 318 321 328 332 336 333 331 329 329 332 337 338 337 338 338 336 336 337 338 332 323 316 313 314 313 309 307 304 300 298 296 298 294 292 290 292 293 292
266 278 274 280 290 288 293 302 305 312 316 316 317 317 323 329 332 328 326 324 324 327 328 329 331 334 337 336 334 331 327 319 315 314 313 311 311 308 303 298 294 291 291 290 289 289 289 290 291
239 249 259 269 283 284 285 294 301 310 311 309 308 311 317 322 326 324 322 320 319 320 316 318 323 326 329 331 328 325 322 320 317 316 315 312 309 308 306 301 295 292 289 287 285 285 289 292 292
242 248 259 269 280 288 286 294 301 304 305 304 306 305 309 313 316 318 316 316 317 317 315 317 320 321 323 323 322 322 321 321 320 318 315 314 310 306 305 304 302 298 292 290 288 285 288 292 293
249 252 261 270 276 279 285 289 296 292 298 304 305 306 306 305 308 310 312 312 314 315 315 317 319 320 320 320 318 317 318 320 319 317 317 316 316 311 306 303 300 300 295 292 291 291 289 292 294
250 252 259 265 271 275 281 285 286 290 292 299 304 306 306 306 304 302 303 307 309 311 313 313 314 315 316 316 314 314 315 316 317 316 316 318 316 314 310 307 301 298 298 295 293 293 292 294 295
245 249 255 259 267 262 274 279 278 283 284 289 296 303 306 305 302 295 294 297 300 305 310 311 311 312 313 314 313 313 313 315 317 317 316 318 315 311 311 311 309 302 298 295 293 292 292 294 296
246 245 252 259 270 266 270 272 276 269 277 283 287 290 297 298 300 297 294 294 295 298 303 306 308 308 309 309 311 311 312 313 315 315 313 315 313 306 307 308 308 305 304 300 292 292 293 295 296
247 248 256 265 267 270 272 269 276 275 279 284 287 289 288 294 296 295 293 293 296 297 301 305 307 306 305 305 306 308 309 311 312 312 311 312 312 305 301 305 306 303 302 302 300 295 291 291 292
241 245 252 264 271 276 274 272 269 277 282 281 285 289 287 289 290 290 289 290 294 296 297 300 302 303 303 303 305 306 307 310 312 312 311 310 312 310 305 303 305 303 301 300 299 299 300 295 291
245 242 247 259 263 267 267 271 272 275 280 282 284 288 291 290 289 289 288 291 297 298 297 297 299 300 299 299 302 305 306 307 310 311 310 310 309 312 313 305 302 301 300 299 297 298 299 299 297
243 246 246 252 259 260 265 270 279 282 286 287 289 289 289 287 289 290 294 297 299 297 296 296 297 297 297 296 297 300 303 304 305 304 305 306 306 306 308 308 304 304 302 301 301 301 300 299 298
240 242 245 250 253 258 264 265 273 278 280 284 286 291 294 291 291 290 290 293 297 297 293 293 295 295 294 293 293 295 298 299 299 299 301 302 302 302 302 304 304 301 300 301 300 299 298 297 296
245 242 245 251 255 255 255 261 265 276 275 279 283 285 286 287 286 284 286 290 293 295 296 294 295 293 292 291 290 292 295 295 295 297 298 299 299 298 298 298 300 300 298 299 298 296 295 295 295